Terug naar catalogus

STARLINK-36986

ActiefCommunicatieSSO
NORAD 68207·PAYLOAD·🇺🇸 United States

Gelanceerd Mar 17, 2026 vanaf Vandenberg Space Force Base

Loading…

Volgende Passages (komende 24 uur)

TLE

VersSource: CelesTrak SupGP

Epoch: Sep 14, 2026, 22:44 UTC

1 68207C 26053A   26257.94770833  .00049114  00000+0  15253-2 0  2575
2 68207  97.2847 131.7238 0001774  97.0056  35.2375 15.33400277    11

Volg STARLINK-36986 in realtime met AllMySat

Download on the App Store